KF5JED-13 Weather Reports


time (UTC)temp
C
wind
direction
speed
KPH
gust
KPH
rain 1hr
cm
rain 24hr
cm
rain mn
cm
humidity
%
barometer
mb
20260502234126 21 202 6.4 9.7 0.00 0.00 0.00 21 1018.9
20260502233621 22 39 3.2 6.4 0.00 0.00 0.00 20 1018.8
20260502233118 22 153 14.5 17.7 0.00 0.00 0.00 21 1019.0
20260502232614 22 173 12.9 16.1 0.00 0.00 0.00 21 1018.9
20260502232112 22 185 11.3 16.1 0.00 0.00 0.00 21 1018.9
20260502231608 22 160 11.3 17.7 0.00 0.00 0.00 22 1018.9
20260502231107 21 193 6.4 14.5 0.00 0.00 0.00 22 1018.9
20260502230604 21 231 9.7 11.3 0.00 0.00 0.00 21 1018.9
20260502225558 23 327 1.6 8.0 0.00 0.00 0.00 20 1019.0
20260502225055 23 327 8.0 16.1 0.00 0.00 0.00 20 1018.9
20260502224551 22 217 12.9 14.5 0.00 0.00 0.00 21 1019.1
20260502224048 23 351 6.4 16.1 0.00 0.00 0.00 20 1019.0
20260502223546 23 66 6.4 11.3 0.00 0.00 0.00 21 1019.1
20260502223044 23 356 4.8 9.7 0.00 0.00 0.00 20 1019.0
20260502222541 22 36 4.8 12.9 0.00 0.00 0.00 21 1019.1
20260502222037 23 302 4.8 11.3 0.00 0.00 0.00 21 1019.2
20260502221533 22 324 11.3 12.9 0.00 0.00 0.00 21 1019.2
20260502221031 23 314 17.7 17.7 0.00 0.00 0.00 21 1019.2
20260502220526 23 312 11.3 12.9 0.00 0.00 0.00 20 1019.4
20260502220024 22 51 11.3 14.5 0.00 0.00 0.00 22 1019.4
20260502215521 21 358 11.3 12.9 0.00 0.00 0.00 22 1019.5
20260502215017 21 359 6.4 14.5 0.00 0.00 0.00 21 1019.2
20260502214515 23 326 11.3 12.9 0.00 0.00 0.00 20 1019.6
20260502214012 22 327 4.8 11.3 0.00 0.00 0.00 21 1019.7
20260502213508 22 315 9.7 19.3 0.00 0.00 0.00 21 1019.6
20260502213007 22 315 9.7 11.3 0.00 0.00 0.00 20 1019.9
20260502212505 22 228 3.2 11.3 0.00 0.00 0.00 21 1019.8
20260502212002 22 212 12.9 19.3 0.00 0.00 0.00 21 1019.8
20260502211457 22 258 8.0 11.3 0.00 0.00 0.00 22 1019.9
20260502210955 22 219 16.1 19.3 0.00 0.00 0.00 21 1020.1
20260502210452 22 224 8.0 16.1 0.00 0.00 0.00 23 1020.2
20260502205949 22 204 9.7 17.7 0.00 0.00 0.00 21 1020.1
20260502205445 22 115 3.2 8.0 0.00 0.00 0.00 21 1020.0
20260502204942 22 258 3.2 9.7 0.00 0.00 0.00 21 1020.2
20260502204439 21 257 6.4 8.0 0.00 0.00 0.00 23 1020.5
20260502203937 21 211 14.5 24.1 0.00 0.00 0.00 23 1020.2
20260502203434 22 235 11.3 19.3 0.00 0.00 0.00 22 1020.6
20260502202930 23 284 4.8 16.1 0.00 0.00 0.00 22 1020.5
20260502202427 21 172 1.6 9.7 0.00 0.00 0.00 22 1020.4
20260502201925 21 232 14.5 22.5 0.00 0.00 0.00 22 1020.6
20260502201421 22 216 9.7 11.3 0.00 0.00 0.00 22 1020.6
20260502200918 22 154 11.3 14.5 0.00 0.00 0.00 21 1020.7
20260502200414 22 150 11.3 17.7 0.00 0.00 0.00 21 1020.6
20260502195912 21 249 6.4 17.7 0.00 0.00 0.00 23 1020.6
20260502195408 22 202 24.1 33.8 0.00 0.00 0.00 22 1020.7
20260502194905 21 201 12.9 16.1 0.00 0.00 0.00 22 1020.7
20260502194402 22 245 9.7 19.3 0.00 0.00 0.00 23 1020.7
20260502193857 21 189 9.7 14.5 0.00 0.00 0.00 22 1020.9
20260502193355 21 228 4.8 8.0 0.00 0.00 0.00 23 1020.7
20260502192850 21 262 1.6 9.7 0.00 0.00 0.00 23 1021.0
20260502192347 21 313 8.0 9.7 0.00 0.00 0.00 23 1021.1
20260502191844 21 225 4.8 8.0 0.00 0.00 0.00 23 1021.2
20260502191343 21 66 8.0 9.7 0.00 0.00 0.00 23 1021.0
20260502190839 21 20 8.0 9.7 0.00 0.00 0.00 23 1021.4
20260502190337 20 163 4.8 14.5 0.00 0.00 0.00 24 1021.2
20260502185832 20 223 3.2 20.9 0.00 0.00 0.00 24 1021.2
20260502185328 20 285 8.0 12.9 0.00 0.00 0.00 24 1021.4
20260502184826 20 214 6.4 20.9 0.00 0.00 0.00 25 1021.2
20260502184321 20 213 4.8 14.5 0.00 0.00 0.00 26 1021.5
20260502183818 21 99 9.7 11.3 0.00 0.00 0.00 24 1021.4
20260502183314 21 97 3.2 12.9 0.00 0.00 0.00 24 1021.6
20260502182809 21 148 6.4 8.0 0.00 0.00 0.00 23 1021.6
20260502182305 21 69 4.8 11.3 0.00 0.00 0.00 26 1021.7
20260502181802 21 174 6.4 14.5 0.00 0.00 0.00 24 1021.7
20260502181301 20 121 9.7 16.1 0.00 0.00 0.00 26 1021.8
20260502180758 20 201 6.4 22.5 0.00 0.00 0.00 25 1021.9
20260502180255 20 126 8.0 14.5 0.00 0.00 0.00 27 1021.9
20260502170208 19 350 11.3 16.1 0.00 0.00 0.00 33 1022.5
20260502164149 17 275 8.0 16.1 0.00 0.00 0.00 41 1022.7
20260502163644 18 318 12.9 14.5 0.00 0.00 0.00 38 1022.4
20260502163141 17 359 12.9 17.7 0.00 0.00 0.00 41 1022.7
20260502162638 17 312 11.3 19.3 0.00 0.00 0.00 42 1022.5
20260502162136 17 346 11.3 12.9 0.00 0.00 0.00 42 1022.6
20260502161633 17 310 12.9 16.1 0.00 0.00 0.00 43 1022.7
20260502161129 16 316 9.7 9.7 0.00 0.00 0.00 45 1022.8
20260502160627 16 339 12.9 25.7 0.00 0.00 0.00 45 1022.7
20260502160126 16 313 9.7 19.3 0.00 0.00 0.00 44 1022.6
20260502152040 14 314 17.7 25.7 0.00 0.00 0.00 54 1022.6
20260502151537 14 310 9.7 24.1 0.00 0.00 0.00 55 1022.8
20260502151034 14 241 8.0 12.9 0.00 0.00 0.00 57 1022.8
20260502150532 13 293 16.1 27.4 0.00 0.00 0.00 59 1022.8
20260502130411 5 244 6.4 9.7 0.00 0.00 0.00 88 1022.5
20260502123353 3 179 3.2 8.0 0.00 0.00 0.00 92 1022.0
20260502122850 3 203 3.2 9.7 0.00 0.00 0.00 92 1021.7
20260502122346 3 177 3.2 9.7 0.00 0.00 0.00 93 1022.0
20260502121845 3 223 4.8 9.7 0.00 0.00 0.00 93 1021.9
20260502121342 2 200 3.2 6.4 0.00 0.00 0.00 92 1021.8
20260502120839 1 169 4.8 8.0 0.00 0.00 0.00 92 1021.7
20260502120335 2 183 6.4 8.0 0.00 0.00 0.00 92 1021.6
20260502115833 2 158 1.6 6.4 0.00 0.00 0.00 91 1021.5
20260502115330 2 174 6.4 8.0 0.00 0.00 0.00 91 1021.7
20260502114826 3 184 4.8 6.4 0.00 0.00 0.00 92 1021.6
20260502114323 3 217 4.8 9.7 0.00 0.00 0.00 92 1021.5
20260502113820 2 219 8.0 9.7 0.00 0.00 0.00 91 1021.6
20260502113318 2 181 6.4 9.7 0.00 0.00 0.00 90 1021.7
20260502112816 3 213 6.4 9.7 0.00 0.00 0.00 91 1021.6
20260502112313 2 173 3.2 8.0 0.00 0.00 0.00 90 1021.8
20260502111810 2 180 6.4 9.7 0.00 0.00 0.00 89 1021.9
20260502111308 5 227 9.7 12.9 0.00 0.00 0.00 90 1021.6
20260502110805 4 235 8.0 9.7 0.00 0.00 0.00 91 1021.8
20260502110303 4 190 4.8 9.7 0.00 0.00 0.00 91 1021.7
20260502105800 4 180 3.2 8.0 0.05 0.00 0.00 91 1021.8
20260502105256 4 265 3.2 9.7 0.05 0.00 0.00 92 1021.7
20260502104755 3 268 3.2 8.0 0.00 0.00 0.00 92 1021.8
20260502104251 3 321 3.2 12.9 0.00 0.00 0.00 92 1021.8
20260502103749 3 305 6.4 6.4 0.00 0.00 0.00 92 1021.8
20260502103246 3 210 3.2 9.7 0.00 0.00 0.00 92 1021.9
20260502102743 3 235 3.2 9.7 0.00 0.00 0.00 92 1021.8
20260502102239 2 221 3.2 6.4 0.00 0.00 0.00 91 1021.9
20260502101738 1 150 4.8 6.4 0.00 0.00 0.00 91 1022.0
20260502101236 2 167 1.6 6.4 0.00 0.00 0.00 90 1021.8
20260502100733 3 183 4.8 9.7 0.00 0.00 0.00 91 1021.7
20260502100232 3 222 8.0 9.7 0.00 0.00 0.00 91 1021.6
20260502091205 1 156 1.6 3.2 0.00 0.00 0.00 92 1021.5
20260502090703 2 153 3.2 4.8 0.00 0.00 0.00 92 1021.6
20260502090200 2 166 4.8 6.4 0.00 0.00 0.00 92 1021.5
20260502071050 3 145 6.4 6.4 0.00 0.00 0.00 87 1022.1
20260502070548 3 140 4.8 6.4 0.00 0.00 0.00 87 1022.1
20260502070045 3 168 4.8 6.4 0.00 0.00 0.00 87 1022.0
20260502065543 3 165 3.2 6.4 0.00 0.00 0.00 86 1022.1
20260502065035 3 154 4.8 6.4 0.00 0.00 0.00 86 1022.0
20260502064533 3 126 4.8 4.8 0.00 0.00 0.00 86 1022.0
20260502064030 3 126 3.2 6.4 0.00 0.00 0.00 86 1022.0
20260502063528 4 150 3.2 4.8 0.00 0.00 0.00 86 1021.9
20260502063026 4 158 0.0 3.2 0.00 0.00 0.00 86 1022.1
20260502062522 3 135 0.0 3.2 0.00 0.00 0.00 86 1022.0
20260502062021 3 162 3.2 4.8 0.00 0.00 0.00 86 1022.0
20260502061518 3 141 6.4 8.0 0.00 0.00 0.00 85 1022.0
20260502061015 3 142 6.4 6.4 0.00 0.00 0.00 85 1022.2
20260502060510 3 159 4.8 6.4 0.00 0.00 0.00 85 1022.0
20260502060008 4 159 6.4 6.4 0.00 0.00 0.00 85 1022.1
20260502055504 4 153 3.2 3.2 0.00 0.00 0.00 85 1022.2
20260502055004 4 124 3.2 3.2 0.00 0.00 0.00 85 1021.9
20260502054502 4 109 3.2 3.2 0.00 0.00 0.00 85 1022.0
20260502053958 4 107 3.2 4.8 0.00 0.00 0.00 85 1022.0
20260502053455 4 139 4.8 4.8 0.00 0.00 0.00 84 1022.2
20260502052953 5 141 4.8 6.4 0.00 0.00 0.00 84 1022.4
20260502052451 5 122 3.2 4.8 0.00 0.00 0.00 84 1022.2
20260502051949 5 137 3.2 4.8 0.00 0.00 0.00 84 1022.0
20260502051447 5 163 3.2 3.2 0.00 0.00 0.00 84 1022.0
20260502050944 5 132 1.6 3.2 0.00 0.00 0.00 84 1022.0
20260502050440 5 120 3.2 4.8 0.00 0.00 0.00 84 1021.9
20260502045938 5 138 4.8 6.4 0.00 0.00 0.00 83 1021.9
20260502045434 5 142 6.4 6.4 0.00 0.00 0.00 83 1021.7
20260502044931 5 138 6.4 8.0 0.00 0.00 0.00 83 1021.8
20260502044427 5 140 6.4 6.4 0.00 0.00 0.00 83 1022.0
20260502043924 6 169 3.2 4.8 0.00 0.00 0.00 83 1021.8
20260502043422 6 149 1.6 3.2 0.00 0.00 0.00 82 1021.8
20260502042921 6 169 3.2 3.2 0.00 0.00 0.00 83 1021.8
20260502042419 6 193 3.2 3.2 0.00 0.00 0.00 83 1021.8
20260502041915 6 191 3.2 6.4 0.00 0.00 0.00 83 1021.8
20260502041414 6 160 3.2 4.8 0.00 0.00 0.00 81 1021.5
20260502040910 6 130 3.2 4.8 0.00 0.00 0.00 79 1021.6
20260502040407 7 107 1.6 1.6 0.00 0.00 0.00 79 1021.6
20260502035903 7 60 0.0 1.6 0.00 0.00 0.00 78 1021.5
20260502035400 7 53 3.2 3.2 0.00 0.00 0.00 78 1021.7
20260502034857 7 38 3.2 4.8 0.00 0.00 0.00 79 1021.6
20260502034356 7 53 3.2 4.8 0.00 0.00 0.00 79 1021.7
20260502033854 7 62 1.6 3.2 0.00 0.00 0.00 78 1021.7
20260502033351 7 55 3.2 3.2 0.00 0.00 0.00 77 1021.9
20260502032847 8 31 1.6 3.2 0.00 0.00 0.00 76 1021.7
20260502032343 8 31 4.8 4.8 0.00 0.00 0.00 76 1021.4
20260502031841 8 7 3.2 4.8 0.00 0.00 0.00 75 1021.5
20260502031340 8 19 4.8 6.4 0.00 0.00 0.00 75 1021.6
20260502030838 8 7 4.8 8.0 0.00 0.00 0.00 75 1021.6
20260502030336 8 11 6.4 6.4 0.00 0.00 0.00 75 1021.5
20260502025832 8 29 4.8 6.4 0.00 0.00 0.00 75 1021.4
20260502025330 8 13 3.2 6.4 0.00 0.00 0.00 75 1021.2
20260502024828 8 14 4.8 8.0 0.00 0.00 0.00 75 1021.4
20260502024325 8 19 4.8 6.4 0.00 0.00 0.00 75 1021.2
20260502023823 8 17 4.8 4.8 0.00 0.00 0.00 75 1021.1
20260502023321 8 24 3.2 6.4 0.00 0.00 0.00 74 1021.0
20260502022819 8 6 3.2 4.8 0.00 0.00 0.00 74 1021.0
20260502022315 8 22 4.8 4.8 0.00 0.00 0.00 73 1021.2
20260502021811 8 25 4.8 4.8 0.00 0.00 0.00 73 1021.0
20260502021309 8 14 3.2 4.8 0.00 0.00 0.00 72 1021.1
20260502020806 9 1 3.2 4.8 0.00 0.00 0.00 72 1020.8
20260502020303 9 16 3.2 3.2 0.00 0.00 0.00 71 1020.8
20260502015800 9 19 4.8 4.8 0.00 0.00 0.00 70 1020.5
20260502015257 10 16 4.8 6.4 0.00 0.00 0.00 69 1020.6
20260502014755 10 19 4.8 4.8 0.00 0.00 0.00 69 1020.6
20260502014251 10 27 3.2 4.8 0.00 0.00 0.00 68 1020.8
20260502013747 10 13 3.2 4.8 0.00 0.00 0.00 68 1020.2
20260502013243 10 14 4.8 6.4 0.00 0.00 0.00 67 1020.4
20260502012740 10 3 4.8 4.8 0.00 0.00 0.00 66 1020.2
20260502012238 11 349 6.4 6.4 0.00 0.00 0.00 65 1020.2
20260502011735 11 5 3.2 6.4 0.00 0.00 0.00 64 1019.7
20260502011231 11 12 4.8 6.4 0.00 0.00 0.00 63 1019.9
20260502010729 11 7 6.4 9.7 0.00 0.00 0.00 62 1019.9
20260502010224 11 12 6.4 6.4 0.00 0.00 0.00 62 1019.8
20260502005722 12 6 6.4 9.7 0.00 0.00 0.00 61 1019.9
20260502005220 12 349 4.8 8.0 0.00 0.00 0.00 59 1019.8
20260502004716 13 340 4.8 12.9 0.00 0.00 0.00 58 1019.8
20260502004212 13 347 6.4 6.4 0.00 0.00 0.00 58 1019.6
20260502003710 13 355 3.2 6.4 0.00 0.00 0.00 57 1019.6
20260502003208 13 352 6.4 12.9 0.00 0.00 0.00 57 1019.5
20260502002703 13 54 8.0 14.5 0.00 0.00 0.00 57 1019.7
20260502002201 13 25 8.0 14.5 0.00 0.00 0.00 57 1019.4
20260502001658 13 357 12.9 16.1 0.00 0.00 0.00 57 1019.5
20260502001155 13 80 8.0 11.3 0.00 0.00 0.00 56 1019.4
20260502000653 13 45 9.7 11.3 0.00 0.00 0.00 57 1019.6
20260502000151 13 25 8.0 11.3 0.00 0.00 0.00 56 1019.4
20260501235646 13 35 9.7 12.9 0.00 0.00 0.00 55 1019.4
20260501235143 13 354 8.0 9.7 0.00 0.00 0.00 54 1019.6
20260501234638 13 17 4.8 8.0 0.00 0.00 0.00 55 1019.5